Appleton, MN

5:04 AM CST on December 17, 2017 (GMT -0600)
Appleton Municipal

Weather History for KAQP - December, 2014

Change the Weather History Date:

Wednesday, December 17, 2014

  Actual Average Record
Temperature  
Mean Temperature 10 °F -  
Max Temperature 17 °F 23 °F 42 °F (1997)
Min Temperature 3 °F 7 °F -16 °F (2008)
Degree Days  
Heating Degree Days 55    
Moisture  
Dew Point 7 °F    
Average Humidity 83    
Maximum Humidity 92    
Minimum Humidity 73    
Precipitation  
Precipitation 0.00 in - - ()
Sea Level Pressure  
Sea Level Pressure 30.33 in    
Wind  
Wind Speed 2 mph (NNW)    
Max Wind Speed 6 mph    
Max Gust Speed -    
Visibility 10 miles    
Events      
Averages and records for this station are not official NWS values.
T = Trace of Precipitation, MM = Missing Value Source: NWS Daily Summary

Daily Weather History Graph

Daily Weather History Graph

Search for Another Location

Airport or City:

Trip Planner

Search our weather history database for the weather conditions in past years. The results will help you decide how hot, cold, wet, or windy it might be!

Date:

Astronomy

Dec. 17, 2014 Rise Set
Actual Time 7:57 AM CST 4:42 PM CST
Civil Twilight 7:23 AM CST 5:16 PM CST
Nautical Twilight 6:46 AM CST 5:54 PM CST
Astronomical Twilight 6:10 AM CST 6:30 PM CST
Moon 3:01 AM CST 1:56 PM CST
Length of Visible Light 9h 53m
Length of Day
8h 45m
Waning Crescent, 21% of the Moon is Illuminated
Dec 17
Waning Crescent
Dec 21
New
Dec 28
First Quarter
Jan 4
Full
Jan 13
Last Quarter

Hourly Weather History & Observations

Time (CST) Temp. Windchill Dew Point Humidity Pressure Visibility Wind Dir Wind Speed Gust Speed Precip Events Conditions
12:15 AM 8.6 °F - 6.8 °F 92% 30.34 in 10.0 mi Calm Calm - N/A   Clear
12:34 AM 8.6 °F 2.0 °F 6.8 °F 92% 30.34 in 10.0 mi WNW 3.5 mph - N/A   Clear
12:55 AM 8.6 °F 2.0 °F 5.0 °F 85% 30.34 in 10.0 mi WNW 3.5 mph - N/A   Clear
1:15 AM 8.6 °F - 5.0 °F 85% 30.34 in 10.0 mi Calm Calm - N/A   Mostly Cloudy
1:35 AM 8.6 °F - 5.0 °F 85% 30.34 in 10.0 mi Calm Calm - N/A   Overcast
1:54 AM 10.4 °F 4.0 °F 6.8 °F 85% 30.34 in 10.0 mi NNW 3.5 mph - N/A   Mostly Cloudy
2:15 AM 8.6 °F 2.0 °F 5.0 °F 85% 30.34 in 10.0 mi NNW 3.5 mph - N/A   Scattered Clouds
2:35 AM 8.6 °F 0.1 °F 6.8 °F 92% 30.34 in 10.0 mi NNW 4.6 mph - N/A   Clear
2:54 AM 8.6 °F 0.1 °F 5.0 °F 85% 30.34 in 10.0 mi NNW 4.6 mph - N/A   Clear
3:15 AM 8.6 °F -1.3 °F 5.0 °F 85% 30.34 in 10.0 mi NNW 5.8 mph - N/A   Clear
3:34 AM 8.6 °F -1.3 °F 5.0 °F 85% 30.34 in 10.0 mi NNW 5.8 mph - N/A   Clear
3:54 AM 8.6 °F 0.1 °F 3.2 °F 79% 30.34 in 10.0 mi NNW 4.6 mph - N/A   Clear
4:15 AM 8.6 °F -1.3 °F 5.0 °F 85% 30.34 in 10.0 mi North 5.8 mph - N/A   Clear
4:54 AM 8.6 °F 0.1 °F 3.2 °F 79% 30.34 in 10.0 mi North 4.6 mph - N/A   Clear
5:15 AM 6.8 °F - 3.2 °F 85% 30.35 in 10.0 mi Calm Calm - N/A   Clear
5:35 AM 6.8 °F - 3.2 °F 85% 30.36 in 10.0 mi Calm Calm - N/A   Clear
5:54 AM 6.8 °F - 3.2 °F 85% 30.35 in 10.0 mi Calm Calm - N/A   Clear
6:15 AM 6.8 °F -0.1 °F 3.2 °F 85% 30.35 in 10.0 mi NW 3.5 mph - N/A   Clear
6:34 AM 6.8 °F - 3.2 °F 85% 30.35 in 10.0 mi Calm Calm - N/A   Clear
6:54 AM 6.8 °F -0.1 °F 3.2 °F 85% 30.35 in 10.0 mi NNW 3.5 mph - N/A   Clear
7:14 AM 6.8 °F - 3.2 °F 85% 30.35 in 10.0 mi Calm Calm - N/A   Clear
7:34 AM 6.8 °F - 3.2 °F 85% 30.35 in 10.0 mi Calm Calm - N/A   Clear
7:55 AM 5.0 °F - 1.4 °F 85% 30.36 in 10.0 mi Calm Calm - N/A   Clear
8:15 AM 6.8 °F - 3.2 °F 85% 30.36 in 10.0 mi Calm Calm - N/A   Clear
8:54 AM 8.6 °F 2.0 °F 3.2 °F 79% 30.36 in 10.0 mi NW 3.5 mph - N/A   Clear
9:14 AM 8.6 °F - 5.0 °F 85% 30.36 in 10.0 mi Calm Calm - N/A   Clear
9:35 AM 10.4 °F 4.0 °F 6.8 °F 85% 30.36 in 10.0 mi NW 3.5 mph - N/A   Clear
9:54 AM 10.4 °F 4.0 °F 6.8 °F 85% 30.37 in 10.0 mi NW 3.5 mph - N/A   Clear
10:14 AM 10.4 °F - 6.8 °F 85% 30.37 in 10.0 mi Calm Calm - N/A   Clear
10:34 AM 12.2 °F - 6.8 °F 79% 30.37 in 10.0 mi Calm Calm - N/A   Scattered Clouds
10:55 AM 12.2 °F 6.1 °F 8.6 °F 85% 30.37 in 10.0 mi NNW 3.5 mph - N/A   Scattered Clouds
11:14 AM 14.0 °F 8.2 °F 8.6 °F 79% 30.36 in 10.0 mi North 3.5 mph - N/A   Scattered Clouds
11:35 AM 15.8 °F 8.6 °F 8.6 °F 73% 30.34 in 10.0 mi North 4.6 mph - N/A   Clear
11:54 AM 15.8 °F - 8.6 °F 73% 30.34 in 10.0 mi Calm Calm - N/A   Clear
12:14 PM 15.8 °F 10.2 °F 10.4 °F 79% 30.33 in 10.0 mi North 3.5 mph - N/A   Clear
12:34 PM 15.8 °F 10.2 °F 10.4 °F 79% 30.33 in 10.0 mi North 3.5 mph - N/A   Clear
12:54 PM 17.6 °F 12.3 °F 10.4 °F 73% 30.32 in 10.0 mi North 3.5 mph - N/A   Clear
1:14 PM 17.6 °F - 10.4 °F 73% 30.32 in 10.0 mi Calm Calm - N/A   Clear
1:34 PM 17.6 °F - 10.4 °F 73% 30.31 in 10.0 mi Calm Calm - N/A   Clear
1:55 PM 17.6 °F 12.3 °F 12.2 °F 79% 30.31 in 10.0 mi West 3.5 mph - N/A   Clear
2:14 PM 17.6 °F 12.3 °F 12.2 °F 79% 30.30 in 10.0 mi WNW 3.5 mph - N/A   Clear
2:34 PM 17.6 °F - 12.2 °F 79% 30.30 in 10.0 mi Calm Calm - N/A   Clear
2:54 PM 17.6 °F - 12.2 °F 79% 30.31 in 10.0 mi Calm Calm - N/A   Clear
3:14 PM 17.6 °F - 12.2 °F 79% 30.31 in 10.0 mi Calm Calm - N/A   Clear
3:34 PM 17.6 °F 12.3 °F 12.2 °F 79% 30.30 in 10.0 mi NW 3.5 mph - N/A   Clear
3:54 PM 17.6 °F - 12.2 °F 79% 30.30 in 10.0 mi Calm Calm - N/A   Clear
4:14 PM 17.6 °F - 12.2 °F 79% 30.30 in 10.0 mi Calm Calm - N/A   Clear
4:34 PM 15.8 °F - 10.4 °F 79% 30.30 in 10.0 mi Calm Calm - N/A   Clear
4:55 PM 14.0 °F - 10.4 °F 86% 30.30 in 10.0 mi Calm Calm - N/A   Clear
5:14 PM 12.2 °F - 8.6 °F 85% 30.31 in 10.0 mi Calm Calm - N/A   Clear
5:34 PM 12.2 °F - 8.6 °F 85% 30.31 in 10.0 mi Calm Calm - N/A   Clear
5:55 PM 12.2 °F - 8.6 °F 85% 30.31 in 10.0 mi Calm Calm - N/A   Clear
6:14 PM 12.2 °F - 8.6 °F 85% 30.30 in 10.0 mi Calm Calm - N/A   Clear
6:35 PM 12.2 °F - 8.6 °F 85% 30.31 in 10.0 mi Calm Calm - N/A   Clear
6:55 PM 10.4 °F - 6.8 °F 85% 30.31 in 10.0 mi Calm Calm - N/A   Clear
7:14 PM 10.4 °F - 6.8 °F 85% 30.32 in 10.0 mi Calm Calm - N/A   Clear
7:34 PM 10.4 °F - 8.6 °F 92% 30.31 in 10.0 mi Calm Calm - N/A   Clear
7:54 PM 10.4 °F - 6.8 °F 85% 30.31 in 10.0 mi Calm Calm - N/A   Clear
8:15 PM 8.6 °F - 5.0 °F 85% 30.32 in 10.0 mi Calm Calm - N/A   Clear
8:34 PM 6.8 °F - 3.2 °F 85% 30.32 in 10.0 mi Calm Calm - N/A   Clear
8:54 PM 8.6 °F - 5.0 °F 85% 30.31 in 10.0 mi Calm Calm - N/A   Clear
9:14 PM 8.6 °F - 6.8 °F 92% 30.30 in 10.0 mi Calm Calm - N/A   Clear
9:34 PM 6.8 °F - 3.2 °F 85% 30.30 in 10.0 mi Calm Calm - N/A   Clear
9:55 PM 6.8 °F - 3.2 °F 85% 30.30 in 10.0 mi Calm Calm - N/A   Clear
10:14 PM 6.8 °F - 3.2 °F 85% 30.29 in 10.0 mi Calm Calm - N/A   Clear
10:34 PM 6.8 °F - 3.2 °F 85% 30.29 in 10.0 mi Calm Calm - N/A   Clear
10:54 PM 6.8 °F - 3.2 °F 85% 30.30 in 10.0 mi Calm Calm - N/A   Clear
11:14 PM 6.8 °F - 3.2 °F 85% 30.30 in 10.0 mi Calm Calm - N/A   Clear
11:34 PM 3.2 °F - 1.4 °F 92% 30.31 in 10.0 mi Calm Calm - N/A   Clear
11:55 PM 5.0 °F - 1.4 °F 85% 30.32 in 10.0 mi Calm Calm - N/A   Clear